Location: Helsinki
(60.1699°N, 24.9384°E)
Time: 20:03:30
(UTC+03:00)

A-11 Canister half - Pass Details

Date: 06 June 2024
Orbit: 1525 x 1683 km, 47.3° (Epoch: 14 June)

Event Time Altitude Azimuth Distance (km) Brightness Sun altitude
Rises 00:55:26 0° 276° (W) 4,709 11.7 -7.0°
Reaches altitude 10° 00:59:31 10° 261° (W) 3,744 11.0 -7.1°
Maximum altitude 01:05:40 20° 220° (SW) 3,073 10.2 -7.1°
Drops below altitude 10° 01:11:57 10° 178° (S) 3,814 10.4 -7.1°
Enters shadow 01:12:48 - 175° (S) 3,997 10.5 -7.1°
